Regional Weather Roundup
Issued by NWS

Home | Current Version | Previous Version | Graphics & Text | Print | Product List | Glossary On
Versions: 1 2 3 4 5 6 7 8 9 10 11 12 13 14 15 16 17 18 19 20 21 22 23 24 25 26 27 28 29 30 31 32 33 34 35 36 37 38 39 40 41 42 43 44 45 46 47 48 49 50
000
ASUS43 KIND 020209
RWRIN

WEATHER ROUNDUP FOR INDIANA
NATIONAL WEATHER SERVICE INDIANAPOLIS IN
1000 PM EDT SAT AUG 01 2015

NOTE: "FAIR" INDICATES FEW OR NO CLOUDS BELOW 12,000 FEET WITH NO
SIGNIFICANT WEATHER AND/OR OBSTRUCTIONS TO VISIBILITY.

* - STATION DOES NOT REPORT WEATHER SUCH AS PRECIPITATION OR FOG.

+ - STATION NOT QUALITY CONTROLLED BY THE NATIONAL WEATHER SERVICE.
    USE DATA WITH CAUTION...ESPECIALLY DEWPOINT AND RELATIVE
    HUMIDITY OBSERVATIONS.

INZ001>003-010>013-019-020-020300-
NORTHWEST INDIANA

CITY           SKY/WX    TMP DP  RH WIND       PRES   REMARKS
KNOX *+        PTCLDY    72  59  64 SW6       29.92S
LA PORTE +     PTCLDY    75  62  62 SW8       29.93R
MICHIGAN CITY+ PTCLDY    73  59  60 SW8       29.92R
MONTICELLO +   CLOUDY    73  65  76 SW6       29.95R
RENSSELAER +   MOCLDY    73  64  73 SW5       29.94S
VALPARAISO     MOCLDY    75  61  61 SW9       29.93R

$$

LMZ046-743>745-020300-
SOUTHERN LAKE MICHIGAN

STATION/POSITION TIME  TEMP    WIND        PRES    WAVE
                       AIR SEA DIR/SP/G            HT
                 (UTC) (F)     (DEG/KT/KT) (MB)    (FT)
BURNS HARBOR     0100   81     220/ 13/ 19 1012.9S
MICHIGAN CITY    0100   80     200/ 12/ 14   N/A
5NW MICH CITY    0200   78 74  240/ 12/ 16   N/A     2

$$

INZ004-005-014>016-021>024-020300-
NORTH CENTRAL INDIANA

CITY           SKY/WX    TMP DP  RH WIND       PRES   REMARKS
GOSHEN         PTCLDY    72  60  66 S6        29.91S
LOGANSPORT +   MOCLDY    68  55  64 SW8       29.96R
PERU/GRISSOM   MOCLDY    70  62  75 SW9       29.95R
ROCHESTER +    PTCLDY    75  61  60 SW6       29.95R
SOUTH BEND     PTCLDY    77  61  57 SW8       29.91S
WARSAW +       PTCLDY    73  61  64 SW7       29.93R

$$

INZ006>009-017-018-025>027-020300-
NORTHEAST INDIANA

CITY           SKY/WX    TMP DP  RH WIND       PRES   REMARKS
ANGOLA *+      PTCLDY    68  61  77 CALM      29.93S
AUBURN +       PTCLDY    70  59  68 CALM      29.93S
FORT WAYNE     MOCLDY    71  60  68 SW8       29.95R
HUNTINGTON +   PTCLDY    73  60  64 SW3       29.95R

$$

INZ028-029-035-036-043>045-051>053-020300-
WEST CENTRAL INDIANA

CITY           SKY/WX    TMP DP  RH WIND       PRES   REMARKS
CRAWFORDSVL +  PTCLDY    67  61  81 S3          N/A
GREENCASTLE +  CLEAR     68  59  73 CALM      30.00R
LAFAYETTE      MOCLDY    71  64  78 W5        29.96R
TERRE HAUTE    CLEAR     68  63  84 CALM      29.97F

$$

INZ030>032-037>040-046>048-054>057-064-065-020300-
CENTRAL INDIANA

CITY           SKY/WX    TMP DP  RH WIND       PRES   REMARKS
FISHERS *+     PTCLDY    72  63  73 SW3       29.99R
FRANKFORT +    MOCLDY    69  65  87 S3        29.99S
GREENWOOD *+   CLEAR     70  57  64 CALM      30.00R
INDIANAPOLIS   PTCLDY    72  59  63 SW7       29.98R
-EAGLE CREEK   PTCLDY    74  59  59 SW5       29.98R
KOKOMO *+      MOCLDY    72  57  60 SW9       29.96S
MARION +       MOCLDY    68  60  74 SW7       29.97S
MT COMFORT *+  PTCLDY    66  63  88 S3        29.99S
SHELBYVILLE    PTCLDY    71  61  70 SW5       29.98R
ZIONSVILLE +   PTCLDY    68  62  82 SW5       29.99S

$$

INZ033-034-041-042-049-050-058-059-020300-
EAST CENTRAL INDIANA

CITY           SKY/WX    TMP DP  RH WIND       PRES   REMARKS
MUNCIE         MOCLDY    72  57  59 W6        29.98R

$$

INZ060-061-067>069-081>083-085>088-020300-
SOUTHWEST INDIANA

CITY           SKY/WX    TMP DP  RH WIND       PRES   REMARKS
EVANSVILLE     CLEAR     75  62  64 CALM      29.98F
HUNTINGBURG *+ CLEAR     72  63  73 CALM      29.99S
WASHINGTON +   CLEAR     69  62  78 CALM      29.97S

$$

INZ062-063-066-070>080-084-089>092-020300-
SOUTH CENTRAL AND SOUTHEAST INDIANA

CITY           SKY/WX    TMP DP  RH WIND       PRES   REMARKS
BLOOMINGTON    CLEAR     67  64  90 CALM      29.99S
MADISON *+     CLEAR     68  63  83 CALM      30.02S
NORTH VERNON + CLEAR     70  63  78 CALM      30.00R
SEYMOUR +      CLEAR     66  63  88 S5        29.99R

$$



USA.gov is the U.S. government's official web portal to all federal, state and local government web resources and services.